Lid_Strength_Index
2 2 2 2 2 2 2 1 2 2 1 1 1 3 2 1 1 1 2 2 4 2
2 2 2 2 1 1 1 1 1 1 1 1 1 1 2 1 1 2 1 1 1 4
2 1 1 2 2 2 2 1 1 1 1 1 1 1 1 1 1 1 1 1 1 1
2 1 1 1 1 1 1 1 1 1 1 1 1 1 2 2 1 2 2 1 2 2
2 1 2 2 1 1 1 1 1 1 1 1 1 1 2 2 1 2 2 2 2 2
3 3 2 2 1 2 1 1 1 1 1 1 1 1 1 1 2 2 2 2 2 2
3 2 2 1 1 1 1 1 1 1 1 1 1 1 1 1 2 2 2 2 2 2
2 2 2 2 2 1 1 1 1 1 1 1 1 1 1 1 2 2 2 2 1 1
2 2 2 2 2 2 2 1 1 1 2 2 1 5 7 4 2 3 2 2 2 2
2 2 2 2 2 2 3 2 2 2 2 2 2 7 9 8 2 2 2 2 3 4
2 2 2 2 2 3 2 2 2 2 2 2 2 7 10 10 1 2 3 2 3 3
2 2 2 2 3 3 2 2 2 2 2 2 2 10 12 9 2 2 3 2 2 3
2 2 2 2 3 3 2 2 2 2 2 3 2 9 13 8 2 3 3 4 4 7
2 2 2 2 2 3 2 2 2 3 2 2 2 7 11 10 2 2 3 4 5 6